Tracking 19795 objects as of 17-Jul-2019
HD Live streaming from Space Station
objects crossing your sky now

ISO

Track ISO now!
ISO is classified as:


NORAD ID: 23715
Int'l Code: 1995-062A
Perigee: 421.6 km
Apogee: 70,202.1 km
Inclination: 4.0 °
Period: 1,411.5 minutes
Semi major axis: 41682 km
RCS: 3.9811 m2 (large)
Launch date: November 17, 1995
Source: European Space Agency (ESA)
Launch site: FRENCH GUIANA (FRGUI)
aabbcc
Your satellite tracking list
Your tracking list is empty




NASA's NSSDC Master Catalog

Two Line Element Set (TLE):
1 23715U 95062A   19196.77915919 -.00000768  00000-0 -41977-2 0  9997
2 23715   4.0212 329.8532 8370420 310.9062   2.7929  1.02015694 87862
Source of the keplerian elements: AFSPC